www.pogodaiklimat.ru

Погода и климат >> Архив погоды >> Россия >> Хабаровский край >> Большой Шантар


АРХИВ ПОГОДЫ в Большом Шантаре

Время (UTC), дата Ветер
(напр.,м/с)
 
Видим.   Явления Облачность Т
(С)
Тd
(С)
f
(%)
Тe
(С)
Тes
(С)
Комфортность P
(гПа)
Po
(гПа)
Тmin
(С)
Tmax
(С)
R
(мм)
R24
(мм)
S
(см)
00 14.03 СВ 4 20 км {снег} 10/4 600 м
[Sc As trans]
-6.5 -9.5 79 -13 -12 1016.9 1015.7 -7.5
03 14.03 З 1 20 км 10/6 600 м
[Sc Cs]
-2.2 -8.4 62 -4 -1 1016.5 1015.3
06 14.03 ЮЗ 2 20 км 10/8 600 м
[Sc diur, vesp Cs]
-5.0 -7.6 82 -9 -9 1016.0 1014.8
09 14.03 Ю 2 50 км 4/1 600 м
[Sc Ac trans Ci fib]
-6.8 -8.6 87 -11 -11 1016.0 1014.8 -1.2
12 14.03 Ю 1 50 км 10/0
[As op]
-7.1 -7.2 99 -10 -10 1016.1 1014.9
15 14.03 ЮЗ 1 20 км слаб. снег 10/0
[As op]
-7.8 -8.0 98 -10 -10 1015.2 1014.0
18 14.03 В 1 20 км слаб. снег 10/0
[As op]
-9.2 -9.4 98 -12 -12 1013.9 1012.7
21 14.03 Ю 1 20 км {снег} 10/10 300 м
[St]
-9.6 -10.1 96 -12 -12 1013.4 1012.2 -10.0 0.0 83
00 15.03 ЮЗ 1 20 км {снег} 10/10 300 м
[St]
-8.0 -8.0 100 -11 -11 1012.8 1011.6
03 15.03 Ю 3 20 км {туман} 10/1 600 м
[Sc Cs]
-6.2 -9.0 81 -12 -8 1011.7 1010.6
06 15.03 Ю 3 50 км {туман} 10/3 600 м
[Sc Cs]
-5.3 -8.8 76 -11 -9 1011.1 1009.9
09 15.03 Ю 2 50 км 8/0
[Ci fib]
-6.5 -29.4 14 -10 -10 1011.1 1009.9 -5.3
12 15.03 В 2 50 км ясно -16.3 -18.2 85 -22 -22 1011.6 1010.4
15 15.03 СВ 2 50 км 1/0
[Ci fib]
-17.9 -20.1 83 -23 -23 1011.1 1009.9
18 15.03 СВ 2 50 км 4/0
[Ci fib]
-16.4 -18.4 84 -22 -22 1010.7 1009.5
21 15.03 СВ 2 50 км 3/1 1000 м
[Sc Ci fib]
-17.4 -19.3 85 -23 -23 1010.6 1009.3 -20.4 83
00 16.03 ЮЗ 1 50 км 9/1 1000 м
[Sc Ci sp]
-10.0 -11.6 88 -12 -9 1010.6 1009.4
03 16.03 ЮЗ 5-10
{12}
50 км 8/6 1000 м
[Sc Ac lent]
-4.5 -10.4 63 -11 -10 1010.0 1008.9
06 16.03 Ю 3
{10}
50 км 6/1 1000 м
[Sc diur, vesp Ac lent]
-4.6 -10.2 65 -10 -8 1008.9 1007.7
09 16.03 З 1 50 км 8/1 1000 м
[Sc Ac cast Ci fib]
-9.5 -13.9 70 -12 -12 1009.6 1008.4 -3.8
12 16.03 СВ 2 50 км 6/0
[Ac trans Ci fib]
-13.9 -16.2 83 -19 -19 1010.1 1008.9
15 16.03 СВ 3 50 км 8/0
[Ci sp]
-14.3 -16.5 83 -21 -21 1008.8 1007.6
18 16.03 СВ 3 50 км 3/1 1000 м
[Sc Ac trans]
-15.9 -17.7 86 -23 -23 1007.9 1006.7
21 16.03 СВ 3 50 км 8/3 1000 м
[Sc Ac trans Ci fib]
-12.4 -14.5 84 -18 -18 1007.2 1006.0 -16.5 83
00 17.03 С 4 10 км слаб. снег 10/0
[As op]
-9.1 -11.7 81 -16 -15 1007.0 1005.9
03 17.03 СВ 3 4000 м слаб. снег 10/0
[As op]
-6.5 -9.4 80 -12 -11 1006.3 1005.1
06 17.03 В 4 20 км в посл. час снег 8/0
[Ac As]
-8.1 -12.4 71 -15 -14 1006.4 1005.2
09 17.03 СВ 3 50 км 8/0
[Ac trans Ci fib]
-11.0 -14.5 75 -17 -17 1007.3 1006.1 -6.2 0.3
12 17.03 СВ 3 50 км 10/0
[Cs]
-11.7 -14.7 78 -18 -18 1008.1 1006.9
15 17.03 СВ 2 10 км слаб. снег 10/0
[As op]
-12.1 -14.8 80 -17 -17 1007.3 1006.1
18 17.03 СВ 3 10 км слаб. снег 10/0
[As op]
-11.7 -14.9 77 -18 -18 1007.3 1006.1
21 17.03 СВ 3 20 км слаб. снег 10/3 1000 м
[Sc Cs]
-12.1 -14.8 80 -18 -18 1007.9 1006.7 -14.3 0.3 84
00 18.03 СВ 6 10 км слаб. снег 10/0
[Ac trans Cs]
-11.3 -15.2 73 -20 -19 1008.7 1007.5
03 18.03 СВ 5 20 км слаб. снег 10/0
[As op]
-10.0 -14.5 70 -18 -17 1008.6 1007.4
06 18.03 СВ 5 10 км слаб. снег {метель} 10/0
[As op]
-11.0 -15.0 72 -19 -18 1008.4 1007.2
09 18.03 СВ 5
{11}
20 км позёмок {снег} 10/0
[As op]
-12.1 -16.0 73 -20 -20 1010.0 1008.8 -9.9 0.2
12 18.03 СВ 4 20 км слаб. снег {метель} 10/0
[As op]
-12.9 -16.3 76 -20 -20 1012.4 1011.2
15 18.03 СВ 2 50 км {снег} 4/0
[Ci fib]
-18.0 -20.4 81 -23 -23 1013.9 1012.7
18 18.03 СВ 2 50 км {снег} ясно -23.6 -26.4 78 -30 -30 1015.4 1014.1
21 18.03 СВ 2 50 км ясно -26.0 -29.0 76 -33 -33 опасность
обморожения
1016.7 1015.4 -26.0 0.0 84
00 19.03 ЮЗ 1 50 км ясно -16.4 -18.9 81 -19 -14 1017.9 1016.7 -26.7
03 19.03 Ю 3 50 км ясно -10.2 -14.7 70 -16 -10 1018.2 1017.0
06 19.03 Ю 3 50 км 1/1 1000 м
[Sc]
-9.6 -13.9 71 -15 -13 1018.1 1016.9
09 19.03 Ю 3 50 км ясно -10.9 -14.5 75 -17 -17 1018.4 1017.2 -9.5
12 19.03 СВ 2 50 км ясно -20.7 -23.1 81 -27 -27 1019.3 1018.0
15 19.03 СВ 3 50 км ясно -24.4 -27.2 78 -33 -33 опасность
обморожения
1019.3 1018.0
18 19.03 СВ 3 50 км ясно -26.0 -29.0 76 -35 -35 опасность
обморожения
1018.6 1017.4
21 19.03 СВ 3 50 км ясно -25.4 -28.5 75 -34 -34 опасность
обморожения
1018.0 1016.8 -27.4 84
00 20.03 ЮЗ 2 50 км ясно -18.0 -20.4 81 -23 -19 1018.7 1017.5
03 20.03 Ю 2 50 км 6/6 1000 м
[Sc diur, vesp]
-10.4 -13.0 81 -15 -12 1018.8 1017.6
06 20.03 Ю 3 50 км 4/4 1000 м
[Sc diur, vesp]
-9.0 -12.6 75 -15 -13 1019.2 1018.0
09 20.03 З 1 50 км 1/1 1000 м
[Sc diur, vesp]
-12.2 -15.3 78 -14 -14 1020.6 1019.4 -8.5
12 20.03 СВ 2 50 км ясно -19.9 -22.4 80 -26 -26 1022.1 1020.9
15 20.03 СВ 3 50 км ясно -24.1 -26.9 78 -33 -33 опасность
обморожения
1022.1 1020.8
18 20.03 СВ 3 50 км 3/0
[Ci fib]
-26.4 -29.4 76 -35 -35 опасность
обморожения
1021.2 1019.9

 

Местоположение метеостанции Большой Шантар (Хабаровский край, Россия): широта 54.83 долгота 137.50 высота над уровнем моря 9 м.

В архиве по умолчанию представлена погода в Большом Шантаре за последнюю неделю. Архивные данные за месяц целиком и за предыдущие месяцы, начиная с января 2011 года, Вы можете получить, выбрав интересующий диапазон дат из раскрывающегося списка и нажав кнопку "Ввод!".


*Определитесь, кто Вы:
робот инопланетянин человек

Внимание! Время в таблицах - всемирное. Для получения местного времени необходимо прибавить поправку, которая равна 10 ч.

Смотрите также архив погоды в соседних городах и на ближайших метеорологических станциях:

Погода в Чумикане (Хабаровский край, Россия) (142 км)
Погода в Аяне (Хабаровский край, Россия) (184 км)
Погода в Джане (Хабаровский край, Россия) (199 км)
Погода в Удском (Хабаровский край, Россия) (203 км)
Погода в Литке (Хабаровский край, Россия) (206 км)
Погода в Бурукане (Хабаровский край, Россия) (221 км)
Погода в Удинске (Хабаровский край, Россия) (229 км)
Погода в Им. Полины Осипенко (Хабаровский край, Россия) (276 км)
Погода в Николаевск-на-Амуре (Хабаровский край, Россия) (280 км)
Погода в Веселой Горке (Хабаровский край, Россия) (303 км)

Пояснения к столбцам:

Ветер - указаны скорость ветра в м/с - средняя за 10 мин, порывы в срок и между сроками (в фигурных скобках) и направление, откуда дует ветер: С - северный, СВ - северо-восточный, В - восточный, ЮВ - юго-восточный, Ю - южный, ЮЗ - юго-западный, З - западный, СЗ - северо-западный.
Видимость - горизонтальная дальность видимости в метрах или километрах. При видимости от 1 до 10 км при отсутствии осадков обычно наблюдается дымка, при ухудшении видимости до 1 км и менее - туман. В сухую погоду видимость может ухудшаться дымом, пылью или мглою.
Явления - указаны атмосферные явления, наблюдавшиеся в срок или в последний час перед сроком; фигурными скобками обозначены явления, наблюдавшиеся между сроками (за 1-3 часа до срока); квадратными скобками обозначены град или гололедные отложения с указанием их диаметра в мм.
Облачность - указаны через наклонную черту общая и нижняя облачность в баллах и высота нижней границы облаков в метрах; квадратными скобками обозначены формы облаков: Ci - перистые, Cs - перисто-слоистые, Cc - перисто-кучевые, Ac - высококучевые, As - высокослоистые, Sc - слоисто-кучевые, Ns - слоисто-дождевые, Cu - кучевые, Cb - кучево-дождевые. Подробнее классификацию облаков см. в Атласе облаков (PDF).
T - Температура воздуха - температура, измеренная на высоте 2 м над землей.
Td - Температура точки росы - температура, при понижении до которой содержащийся в воздухе водяной пар достигнет насыщения.
f - Относительная влажность воздуха - влажноcть воздуха, измеренная на высоте 2 м над землей.
Te - Эффективная температура - температура, которую ощущает одетый по сезону человек в тени. Характеристика душности погоды. При расчете учитывается влияние влажности воздуха и скорости ветра на теплоощущения человека.
Tes - Эффективная температура на солнце - температура, которую ощущает человек, с поправкой на солнечный нагрев. Характеристика знойности погоды. Зависит от высоты солнца над горизонтом, облачности и скорости ветра. Ночью, в пасмурную погоду, а также при ветре 12 м/с и более поправка равна нулю.
P - Атмосферное давление - приведенное к уровню моря атмосферное давление.
Po - Атмосферное давление - измеренное на уровне метеостанции атмосферное давление.
Tmin - Минимальная температура - минимум температуры воздуха на высоте 2 м над землей.
Tmax - Максимальная температура - максимум температуры воздуха на высоте 2 м над землей.
R - Количество осадков - Количество выпавших осадков за период времени, мм. При наведении курсора мыши на число - период времени, за который выпало указанное количество осадков.
R24 - Количество осадков - Количество выпавших осадков за 24 часа, мм.
S - Снежный покров - Высота снежного покрова, см. При наведении курсора мыши на число - состояние снежного покрова и степень покрытия местности в баллах.